Home   Weather   Louisville   Past weeks
Flag for USA

Past Weather in Louisville, Kentucky, USA — Yesterday and Last 2 Weeks

Now
45 °F

Partly sunny.


Feels Like: 40 °F
Forecast: 52 / 38 °F
Wind: 9 mph from Northwest

Location: Standiford Field

Current Time: Mar 21, 2019 at 8:43:01 pm

Latest Report: Mar 21, 2019 at 6:56 pm


Visibility: 10 mi

Pressure: 30.01 "Hg

Humidity: 65%

Dew Point: 34 °F

Location of LouisvilleLocation

Past Weather in Louisville — Graph

°F

Louisville Temperature Yesterday

Maximum temperature yesterday: 62 °F (at 2:56 pm)
Minimum temperature yesterday: 41 °F (at 5:56 am)
Average temperature yesterday: 51 °F

High & Low Weather Summary for the Past Weeks

 TemperatureHumidityPressure
High78 °F (Mar 14, 3:56 pm)92% (Mar 8, 3:20 am)30.48 "Hg (Mar 8, 3:20 am)
Low27 °F (Mar 6, 10:56 pm)21% (Mar 20, 2:56 pm)29.54 "Hg (Mar 9, 6:56 pm)
Average46 °F58%30.16 "Hg
* Reported Mar 6 5:56 pm — Mar 21 6:56 pm, Louisville. Weather by CustomWeather, © 2019

Note: Actual official high and low records may vary slightly from our data, if they occured in-between our weather recording intervals... More about our weather records

Advertising

Louisville Weather History for the Previous 24 Hours

Scroll right to see more
 ConditionsComfort  
Time TempWeatherWind HumidityBarometerVisibility
6:56 pm
Thu, Mar 21
45 °FPartly sunny.9 mph65%30.01 "Hg10 mi
5:56 pm44 °FMostly cloudy.13 mph71%30.00 "Hg10 mi
4:56 pm44 °FOvercast.16 mph68%29.98 "Hg10 mi
3:56 pm44 °FMostly cloudy.15 mph65%29.96 "Hg10 mi
3:44 pm45 °FMostly cloudy.16 mph63%29.95 "Hg10 mi
2:56 pm45 °FOvercast.14 mph60%29.96 "Hg10 mi
1:56 pm46 °FMostly cloudy.17 mph61%29.95 "Hg10 mi
12:56 pm48 °FMostly cloudy.14 mph66%29.93 "Hg10 mi
11:56 am49 °FMostly cloudy.10 mph74%29.93 "Hg10 mi
10:56 am47 °FOvercast.10 mph80%29.94 "Hg8 mi
9:56 am47 °FOvercast.12 mph83%29.93 "Hg7 mi
8:56 am47 °FOvercast.9 mph83%29.93 "Hg5 mi
8:30 am46 °FFog.10 mph86%29.93 "Hg5 mi
7:56 am46 °FDrizzle. Fog.7 mph86%29.93 "Hg5 mi
7:42 am46 °FFog.7 mph86%29.94 "Hg6 mi
6:56 am46 °FFog.5 mph86%29.93 "Hg8 mi
6:38 am46 °FFog.7 mph89%29.94 "Hg8 mi
6:05 am47 °FLight rain. Fog.8 mph86%29.94 "Hg9 mi
5:56 am47 °FLight rain. Fog.7 mph86%29.94 "Hg9 mi
5:03 am47 °FLight rain. Fog.8 mph86%29.95 "Hg10 mi
4:56 am47 °FFog.7 mph86%29.95 "Hg10 mi
3:56 am47 °FLight rain. Fog.10 mph86%29.97 "Hg8 mi
3:32 am47 °FLight rain. Mostly cloudy.8 mph86%29.99 "Hg7 mi
2:56 am47 °FLight rain. Overcast.5 mph83%29.99 "Hg8 mi
1:56 am48 °FLight rain. Mostly cloudy.7 mph80%29.99 "Hg10 mi
1:26 am48 °FMostly cloudy.8 mph77%30.00 "Hg10 mi
12:56 am48 °FOvercast.9 mph77%30.02 "Hg10 mi
11:56 pm
Wed, Mar 20
49 °FMostly cloudy.10 mph71%30.02 "Hg10 mi
10:56 pm51 °FMostly cloudy.16 mph63%30.02 "Hg10 mi
9:56 pm52 °FOvercast.13 mph53%30.01 "Hg10 mi
8:56 pm54 °FMostly cloudy.13 mph47%30.01 "Hg10 mi
Weather by CustomWeather, © 2019

See weather overview